Retour au catalogue

THORAD AGENA D DEB

ActifPO
NORAD 4935·DEBRIS·🇺🇸 United States

Lancé Apr 8, 1970 depuis Vandenberg Space Force Base

Loading…

Prochains Passages (prochaines 24 heures)

TLE

FraisSource: Space-Track

Époque: Sep 14, 2026, 08:03 UTC

1 04935U 70025GB  26257.33542817  .00000494  00000-0  45322-3 0  9996
2 04935  99.8658  30.0843 0064291 134.7630 254.7868 13.87403542829402

Suivez THORAD AGENA D DEB en temps réel avec AllMySat

Download on the App Store